Regional Weather Roundup
Issued by NWS Sterling, VA

Home | Current Version | Previous Version | Text Only | Print | Product List | Glossary Off
Versions: 1 2 3 4 5 6 7 8 9 10 11 12 13 14 15 16 17 18 19 20 21 22 23 24 25 26 27 28 29 30 31 32 33 34 35 36 37 38 39 40 41 42 43 44 45 46 47 48 49 50

000
ASUS41 KLWX 032210
RWRLWX

REGIONAL WEATHER ROUNDUP
NATIONAL WEATHER SERVICE BALTIMORE MD/WASHINGTON DC
500 PM EST TUE MAR 03 2015

Note: "FAIR" indicates few or no clouds below 12,000 feet
with no significant weather and/or obstructions to visibility.
 TC=TEMPERATURE CELSIUS

 * =Non NWS site. Station does not report precipitation (e.g. rain,
    snow, etc.), thunder, or fog.

DCZ001-MDZ009-015-VAZ040>042-051-053>054-032300-
WASHINGTON METRO

CITY           SKY/WX    TMP DP  RH WIND       PRES   REMARKS
WASHINGTON NAT LGT RAIN  34  24  67 S12       30.15F WCI  25
DULLES         CLOUDY    33  18  53 S10       30.09F WCI  25
ANDREWS AFB    FRZ RAIN  31  25  81 S9        30.12F WCI  22
FT BELVOIR     LGT RAIN  34  19  55 SE7       30.13F
QUANTICO       CLOUDY    34  25  69 S9        30.17F WCI  27
COLLEGE PARK*  CLOUDY    32  28  86 SE3       30.14F
LEESBURG*      MIX PCPN  34  23  64 S15G22    30.09F WCI  24
MANASSAS*      CLOUDY    36  19  51 S9        30.13F WCI  29
GAITHERSBURG*  CLOUDY    28  21  74 S13       30.13F WCI  18

$$

MDZ006>007-011-014-032300-
BALTIMORE METRO

CITY           SKY/WX    TMP DP  RH WIND       PRES   REMARKS
BWI AIRPORT    FRZ RAIN  30  26  85 S6        30.13F FOG
MD SCIENCE CTR   N/A     31  26  82 MISG      30.14F
MARTIN STATE   LGT RAIN  32  30  93 SE10      30.17F FOG     WCI  24
ANNAPOLIS      FRZ RAIN  31  27  85 S10       30.16F FOG     WCI  22
FORT MEADE*    CLOUDY    30  28  93 S6        30.16F

$$

MDZ012-015-019>023-032300-
MARYLAND EASTERN SHORE

CITY           SKY/WX    TMP DP  RH WIND       PRES   REMARKS
OCEAN CITY     CLOUDY    33  29  85 CALM      30.17F
SALISBURY      LGT RAIN  36  30  79 CALM      30.17F
BAY BRIDGE AP* LGT RAIN  32  30  93 S3        30.17F
CAMBRIDGE*     CLOUDY    34  32  93 S3        30.16F
EASTON*        CLOUDY    34  34 100 S5        30.19F FOG

$$

MDZ017>025-032300-
SOUTHERN MARYLAND

CITY           SKY/WX    TMP DP  RH WIND       PRES   REMARKS
PATUXENT RIVER LGT RAIN  33  26  75 S6        30.16F
ST INIGOES     LGT RAIN  33  27  78 S3        30.17F
LEONARDTOWN*   CLOUDY    32  28  86 S3        30.18F

$$

MDZ003>005-032300-
NORTH CENTRAL MARYLAND

CITY           SKY/WX    TMP DP  RH WIND       PRES   REMARKS
FREDERICK*     CLOUDY    32  19  59 S9        30.11F WCI  24
HAGERSTOWN APT MIX PCPN  32  19  58 S15       30.00F WCI  22
WESTMINSTER*   CLOUDY    27  25  93 S12       30.05F WCI  16

$$

MDZ501>502-032300-
WESTERN MARYLAND

CITY           SKY/WX    TMP DP  RH WIND       PRES   REMARKS
OAKLAND*       FOG       34 N/A N/A S9        29.80F VSB<1/4 WCI  26
CUMBERLAND*    CLOUDY    34  32  93 CALM      29.98F

$$

VAZ025>031-032300-
SHENANDOAH VALLEY

CITY           SKY/WX    TMP DP  RH WIND       PRES   REMARKS
WINCHESTER*    CLOUDY    34  18  51 S12       30.00F WCI  25
FRONT ROYAL*   CLOUDY    36  27  69 S9        30.01F WCI  29
LURAY*         DRIZZLE   37  30  75 SW20      30.02F WCI  27
NEW MARKET*    CLOUDY    35  27  73 S9G17     30.02F WCI  27
STAUNTON*      CLOUDY    36  25  65 S6        30.07F
WAYNESBORO*    CLOUDY    35  25  67 W3        30.06F

$$

WVZ021-048>050-054>055-032300-
EASTERN WEST VIRGINIA PANHANDLE

CITY           SKY/WX    TMP DP  RH WIND       PRES   REMARKS
MARTINSBURG    LGT RAIN  35  20  54 SE13      30.00F WCI  26
PETERSBURG*    NOT AVBL

$$

VAZ036>039-050-032300-
CENTRAL FOOTHILLS

CITY           SKY/WX    TMP DP  RH WIND       PRES   REMARKS
CHARLOTTESVILL CLOUDY    35  23  61 S12G24    30.10F WCI  27
CULPEPER*      CLOUDY    36  19  51 S8        30.12F
ORANGE*        CLOUDY    36  21  55 S7        30.13F
GORDONSVILLE*  CLOUDY    35  21  57 S9        30.11F WCI  27
WARRENTON*     LGT RAIN  36  24  63 S8G16     30.11F

$$

VAZ055>057-032300-
NORTH AND CENTRAL PIEDMONT

CITY           SKY/WX    TMP DP  RH WIND       PRES   REMARKS
FREDERICKSBRG* CLOUDY    37  21  51 S6        30.14F
STAFFORD*      CLOUDY    35  15  44 SW7       30.19F

$$

NCZ024-NYZ072-PAZ021-071-VAZ022-071-032300-
OTHER REGIONAL OBSERVATIONS

CITY           SKY/WX    TMP DP  RH WIND       PRES   REMARKS
NEW YORK CITY  HVY SNOW  29  24  82 S9G17     30.19F VSB 1/4 WCI  20
PHILADELPHIA   FRZ RAIN  31  27  85 SE6       30.17F FOG
PITTSBURGH     LGT RAIN  37  37 100 S7        29.72F FOG
ROANOKE        CLOUDY    38  31  76 S9        30.14F
RICHMOND       CLOUDY    38  23  55 S6        30.18F
RALEIGH        LGT RAIN  36  33  89 CALM      30.22F FOG

$$

ANZ530>537-032300-
MARINE OBSERVATIONS

STATION/POSITION TIME  TEMP    WIND        PRES
                       AIR SEA DIR/SP/G
                 (UTC) (F)     (DEG/KT/KT) (MB)
THOMAS PT LIGHT  2200   31 31  180/  9/ 10 1022.4F
BALT KEY BRIDGE  2100   30     130/  8/ 12 1021.8F
COVE POINT       2100   30     190/  8/  9 1022.5F
LEWISETTA        2100   35 33  230/  2/  4 1022.6F
SOLOMONS ISLAND  2100      33                N/A

$$



USA.gov is the U.S. government's official web portal to all federal, state and local government web resources and services.